Terug naar catalogus

FENGYUN 1C DEB

ActiefPO
NORAD 30274·DEBRIS·🇨🇳 China

Gelanceerd May 10, 1999 vanaf Taiyuan Satellite Launch Center

Loading…

Volgende Passages (komende 24 uur)

TLE

VersSource: Space-Track

Epoch: Sep 14, 2026, 10:14 UTC

1 30274U 99025YK  26257.42645788  .00005245  00000-0  11924-2 0  9992
2 30274  99.3181  61.9317 0002876 100.7920 288.3790 14.56443791 22171

Volg FENGYUN 1C DEB in realtime met AllMySat

Download on the App Store